Content
SEND FEEDBACK

Daily
Averages
Monthly
Summary
United States of America

EAU CLAIRE, MICHIGAN


Home > North America > United States > Michigan
Elevation: 234 meters     Latitude: 42 01N     Longitude: 086 15W

WEATHER
 
SELECT A DAY
Number of Records: 233,242;   Date Range: 1/3/95 - 12/18/14
 
SHARE

PRINT THIS DATA

[ ← Previous Day ]
WEATHER ALMANAC - 13 FEBRUARY, 2013
[ Next Day → ]
[ °F ]   °C
Weather ElementAverageHighLow
Temperature0.2 °C6.1 °C (3:53 pm)-5 °C (7:53 am)
Dewpoint-3.7 °C-1.7 °C (1:53 pm)-6.7 °C (5:53 am)
Humidity76.3 %92 % (10:53 pm)58 % (3:53 pm)
Barometer1009.5 hPa1013.9 hPa (1:53 am)1006.8 hPa (3:53 pm)
Wind Speed9 km/h20.4 km/h (3:53 pm)
Weather ElementAverage
Visibility11.4 km
Wind DirectionSSE (170.9 °)

Weather ElementTotal
Precipitation---
Heating Degree Days17.8 (Base 18.3)
Averaged from 23 records on 13 February, 2013
WEATHER CONDITIONS BREAKOUT
WIND DIRECTION BREAKOUT
WEATHER BY HOUR - 13 FEBRUARY, 2013
[ °F ]   °C
Local TimeTemperatureDewpointHumidityBarometerVisibilityWind DirectionWind SpeedGust SpeedPrecipitationEventsConditions
1:53 AM-1.1 °C-5 °C75 %1013.9 hPa14.5 kmWSW (240°)9.3 km/hOvercast
2:19 AM-3 °C-6 °C80 %1012.5 hPa11.3 kmSouth (180°)5.6 km/hScattered Clouds
2:53 AM-3.3 °C-5.6 °C84 %1013.5 hPa9.7 kmCalmClear
3:53 AM-3.9 °C-6.1 °C85 %1012.9 hPa9.7 kmSouth (180°)7.4 km/hClear
4:53 AM-4.4 °C-6.1 °C88 %1012.2 hPa9.7 kmSouth (170°)7.4 km/hClear
5:53 AM-4.4 °C-6.7 °C84 %1011.9 hPa9.7 kmSouth (180°)7.4 km/hClear
7:53 AM-5 °C-6.7 °C88 %1010.5 hPa6.4 kmSE (140°)7.4 km/hClear
8:53 AM-3.9 °C-6.1 °C85 %1010.2 hPa8 kmSSE (160°)13 km/hClear
9:53 AM-1.1 °C-5 °C75 %1009.8 hPa9.7 kmSouth (180°)13 km/hHaze
10:53 AM1.1 °C-3.3 °C73 %1009.8 hPa11.3 kmSouth (180°)13 km/hClear
11:53 AM2.2 °C-2.8 °C70 %1009.5 hPa11.3 kmSSW (210°)14.8 km/hClear
12:53 PM3.3 °C-2.2 °C68 %1008.5 hPa12.9 kmSSW (200°)13 km/hClear
1:53 PM4.4 °C-1.7 °C65 %1007.5 hPa12.9 kmSSW (210°)16.7 km/hClear
2:53 PM5.6 °C-1.7 °C60 %1007.1 hPa12.9 kmWest (270°)13 km/hClear
3:53 PM6.1 °C-1.7 °C58 %1006.8 hPa16.1 kmWSW (250°)20.4 km/hClear
4:53 PM5.6 °C-1.7 °C60 %1007.1 hPa14.5 kmWSW (240°)13 km/hScattered Clouds
5:53 PM4.4 °C-2.2 °C63 %1007.1 hPa14.5 kmWSW (250°)13 km/hPartly Cloudy
6:53 PM3.3 °C-1.7 °C70 %1007.5 hPa16.1 kmSSW (210°)5.6 km/hClear
7:53 PM2.8 °C-2.2 °C70 %1008.1 hPa16.1 kmSW (230°)9.3 km/hClear
8:53 PM1.1 °C-1.7 °C82 %1008.5 hPa11.3 kmWSW (250°)5.6 km/hClear
9:53 PM-1.7 °C-3.3 °C89 %1008.1 hPa9.7 kmCalmClear
10:53 PM-1.7 °C-2.8 °C92 %1008.1 hPa8 kmCalmClear
11:53 PM-1.7 °C-2.8 °C92 %1008.1 hPa6.4 kmCalmClear
Hourly data recorded from KBEH, located 0 kilometers away from Eau Claire, Michigan







STORIES FROM OUR PARTNERS